Theta_e
326 325 321 320 320 321 320 317 315 314 313 312 311 310 310 310 311 312 312 313 319 319 319 318 318 317 316 315 314 313 312 311 310 310 310 310 310 310 310 310 310 310 310
327 324 320 318 318 318 319 317 314 311 309 306 303 303 304 305 306 309 310 308 313 314 315 316 316 315 314 313 312 311 311 310 309 308 308 308 308 308 308 308 308 309 309
326 323 320 319 317 319 319 314 311 306 302 300 299 298 298 299 300 304 305 305 305 309 310 312 312 312 312 312 310 309 309 308 307 307 307 306 306 307 307 307 307 307 307
329 323 320 317 319 318 314 310 304 298 296 297 297 296 296 296 296 297 300 300 301 302 304 307 308 308 309 309 309 309 307 306 306 305 305 305 305 305 305 305 306 306 306
329 324 321 319 319 314 311 307 300 297 295 295 295 295 295 294 294 293 293 294 296 297 298 301 301 303 304 306 307 307 306 305 304 304 304 304 304 304 304 304 305 305 305
327 325 320 317 313 312 309 303 298 297 295 294 293 293 293 293 294 293 291 291 292 292 293 294 296 296 300 302 304 305 305 304 303 303 303 303 303 303 303 304 304 304 304
326 325 322 314 310 308 306 300 297 296 293 294 292 291 291 291 291 292 292 291 290 290 290 291 292 292 293 298 300 302 303 303 303 302 302 302 302 302 303 303 303 303 303
323 319 316 312 307 306 302 298 296 293 292 294 293 291 286 287 289 290 291 290 289 289 288 288 289 290 292 292 294 297 299 301 301 301 301 300 301 301 302 302 302 302 302
315 314 313 310 306 306 302 297 296 294 290 292 295 298 289 289 286 288 288 289 289 288 287 287 287 288 289 290 290 291 294 296 297 298 299 299 299 300 301 301 301 301 301
307 309 310 309 306 306 305 298 297 298 294 291 296 299 298 293 288 282 287 287 288 287 287 287 286 286 288 288 288 288 291 293 294 295 295 296 298 299 299 300 300 300 300
304 302 305 306 305 305 305 300 298 298 296 295 296 297 295 296 295 288 282 283 286 287 287 286 286 286 286 287 287 286 288 290 292 292 293 293 295 296 297 298 298 298 299
296 300 299 300 301 302 301 300 299 299 298 299 299 296 293 291 290 290 286 283 283 285 286 287 286 286 286 286 285 284 285 288 290 290 291 291 293 294 295 296 296 297 297
294 293 297 298 299 300 300 301 299 299 297 298 299 295 295 293 292 291 288 284 284 284 285 286 286 286 284 286 285 283 283 285 288 288 289 290 291 292 293 293 294 295 295
300 297 293 295 297 300 300 299 298 298 298 298 299 294 292 291 291 289 288 285 282 282 284 284 286 286 285 285 283 283 284 283 285 286 287 288 289 291 291 291 292 293 293
305 299 294 291 293 293 295 296 296 295 295 296 295 293 290 289 290 288 289 288 285 281 280 284 282 286 285 284 283 283 283 283 284 285 285 286 288 289 290 290 290 291 292
298 294 290 290 288 291 291 293 292 290 291 292 291 290 288 288 287 287 287 285 285 286 282 283 283 284 284 281 282 281 283 282 284 283 284 285 286 288 288 288 289 290 290
292 290 287 287 286 287 288 290 289 288 288 288 288 287 286 286 285 284 284 284 283 284 283 280 282 283 282 282 281 282 283 282 281 283 284 285 286 286 286 286 287 288 288
290 289 287 286 285 286 287 287 287 287 286 284 286 285 284 284 283 283 283 282 282 282 282 279 280 280 280 281 281 280 280 280 281 282 284 285 285 284 284 285 286 286 286
288 285 284 284 283 284 284 285 285 285 286 284 284 283 282 282 281 281 282 281 281 279 281 281 279 280 279 280 279 280 280 281 281 283 283 283 283 283 283 284 284 284 283
285 284 284 283 283 282 283 282 282 283 283 283 283 283 282 282 281 281 281 281 280 279 279 279 279 278 278 279 279 278 278 280 279 280 282 282 281 282 283 283 283 282 282
285 284 282 282 282 281 281 281 281 282 282 282 282 283 282 282 283 282 280 280 280 279 278 278 278 277 277 278 277 279 277 278 279 280 278 278 278 278 278 280 280 281 282
283 282 282 281 281 281 285 285 283 282 281 281 281 281 282 281 282 284 283 283 282 280 279 279 279 277 278 278 278 278 277 276 274 280 277 277 277 276 277 277 280 281 282
283 282 282 281 281 281 285 286 285 282 281 281 281 280 280 280 281 281 283 284 283 284 283 281 280 279 278 279 279 278 277 277 276 278 276 274 276 274 277 276 279 281 281
282 281 281 281 281 281 285 286 284 282 282 282 281 281 280 280 280 280 280 281 281 281 281 281 280 280 280 281 280 279 278 277 278 278 277 272 274 273 275 275 279 279 279
282 281 282 281 281 281 285 286 284 281 281 281 281 281 281 280 282 282 279 278 279 280 283 284 285 285 285 285 283 278 276 276 273 275 277 274 273 272 273 273 275 277 278
283 281 281 281 281 280 285 286 283 281 281 280 280 281 282 282 284 285 280 278 277 278 278 278 278 279 282 281 283 281 279 276 275 273 274 271 271 271 268 272 273 273 272
Wind_Speed
8 9 6 4 4 4 6 7 8 8 9 9 9 10 10 10 10 6 7 18 18 19 18 18 19 19 19 20 20 20 20 21 21 22 23 23 24 24 24 24 24 25 25
7 7 8 7 7 6 6 6 8 8 8 8 9 9 9 8 9 9 8 10 19 17 17 17 18 18 18 18 18 19 19 20 21 22 23 23 23 24 24 24 24 24 25
10 9 8 7 8 7 10 8 9 8 8 8 9 8 8 8 8 8 8 7 10 16 16 17 17 17 17 17 17 17 18 19 20 21 22 22 22 23 23 23 24 24 25
15 10 8 8 8 8 8 9 9 7 8 8 7 7 7 7 8 7 6 6 6 7 12 16 17 16 15 15 15 16 17 18 19 20 20 21 21 22 23 23 24 25 25
14 11 9 8 11 6 8 9 8 8 9 8 8 7 6 6 6 7 8 7 6 7 6 14 17 15 13 13 14 15 16 17 18 19 19 20 21 21 22 23 23 24 26
13 10 9 11 9 9 8 9 11 8 8 9 9 8 6 5 5 5 7 6 6 6 5 6 6 8 13 12 12 13 15 16 17 18 19 20 20 20 21 22 24 25 26
12 12 10 12 10 9 10 10 11 12 9 10 9 7 6 5 5 4 5 5 6 6 6 5 3 3 4 11 12 12 13 15 16 17 18 18 19 20 21 23 24 25 26
11 10 11 12 12 9 12 12 12 9 6 10 7 6 5 3 3 4 4 4 6 4 5 5 5 4 3 4 7 11 13 14 15 15 16 17 18 20 21 22 23 25 26
7 10 12 12 12 11 12 15 13 14 10 10 14 4 5 5 8 4 5 4 5 4 4 4 4 3 3 3 5 7 11 12 13 14 15 16 17 18 20 21 22 23 25
5 7 10 11 13 10 14 14 13 10 9 13 9 4 2 8 5 6 5 5 5 6 6 4 4 3 3 3 6 8 9 10 12 13 14 15 16 17 19 20 21 22 24
6 6 8 10 12 9 13 16 14 10 7 9 9 7 3 2 5 4 6 6 5 6 5 5 4 4 3 2 3 5 8 9 11 11 12 13 15 16 18 20 21 22 23
4 7 9 9 9 8 11 12 14 13 11 10 8 9 6 5 6 4 4 9 8 7 6 5 5 4 3 4 5 2 6 9 9 10 11 13 14 16 18 19 20 22 23
5 9 10 11 9 11 10 9 11 11 9 11 12 8 5 3 3 3 5 6 5 5 4 5 5 4 4 2 5 3 2 6 8 9 10 12 14 15 16 18 20 22 23
9 11 10 10 11 12 11 10 8 7 9 8 10 6 4 3 2 2 5 7 5 3 5 5 6 4 4 2 4 3 1 1 8 8 9 11 12 14 15 17 19 21 23
8 11 11 10 9 9 9 10 8 8 7 7 8 7 6 4 3 3 4 6 5 5 6 6 4 6 4 4 4 2 2 3 7 7 9 11 12 15 15 17 19 22 24
10 11 10 11 10 9 9 9 6 8 8 7 7 10 8 6 6 4 4 4 2 3 5 3 4 8 5 3 5 3 3 5 7 7 9 11 12 15 15 17 20 23 24
9 10 10 10 11 11 11 12 9 12 11 11 10 11 10 10 7 6 4 4 3 3 5 1 2 5 5 5 4 6 3 4 4 8 9 12 14 15 15 17 21 24 25
7 8 9 9 9 10 12 12 12 13 13 13 12 10 12 9 10 8 6 6 5 2 3 6 3 4 5 5 3 4 4 3 5 7 10 13 14 14 15 19 22 23 24
8 7 8 9 10 10 10 7 6 7 9 11 13 12 11 10 9 7 6 6 5 3 3 3 3 2 2 2 4 4 5 4 4 9 10 12 12 13 17 20 21 22 22
8 9 9 9 9 8 8 6 7 5 6 7 7 9 11 11 11 10 7 7 5 4 4 3 2 3 4 3 3 3 4 2 4 3 7 6 10 13 18 20 20 20 22
8 8 8 8 8 10 7 9 9 8 7 8 6 6 6 5 12 11 8 7 7 4 4 4 2 2 3 3 4 2 2 4 5 4 3 3 4 7 8 12 14 19 22
8 8 9 10 10 7 17 19 13 9 9 11 10 7 7 7 9 13 11 12 10 8 7 4 4 4 5 3 3 3 2 2 2 2 1 5 4 7 6 7 15 23 25
8 9 9 9 10 9 20 20 18 10 9 8 10 11 9 6 5 5 9 9 8 11 8 6 5 7 4 5 4 4 4 5 6 5 4 7 3 8 6 7 18 24 25
9 8 8 8 8 8 21 21 18 10 8 7 8 9 9 10 8 7 6 6 8 9 9 6 7 6 6 3 5 4 5 6 7 5 5 8 3 8 8 6 19 21 15
6 7 7 8 9 8 21 24 18 10 9 9 8 8 9 9 13 14 8 8 9 8 9 14 15 16 15 14 11 3 6 7 5 6 4 5 4 8 10 9 5 15 21
6 6 7 7 8 8 19 22 17 8 9 7 7 8 14 11 17 19 10 9 10 8 6 5 5 10 14 11 16 10 6 6 6 5 2 1 2 3 6 7 5 8 8
Wind_Direction
168 156 154 160 141 130 136 126 127 115 105 98 93 92 89 89 91 84 58 37 68 76 80 80 81 79 74 70 67 66 64 62 60 58 55 53 49 46 42 38 33 30 26
163 159 156 157 154 151 145 135 130 123 110 104 99 98 97 94 99 95 78 52 53 69 76 80 77 77 74 69 66 65 64 63 60 58 54 51 47 44 40 36 31 28 25
169 164 158 159 159 160 148 126 118 109 113 108 108 102 101 104 103 98 101 85 63 51 71 74 74 72 71 69 68 66 65 64 61 57 54 49 46 42 38 34 30 26 23
179 166 161 161 160 157 145 144 139 131 123 124 122 109 103 102 105 106 94 99 98 85 64 71 68 67 66 68 70 70 67 64 61 57 52 48 45 41 37 33 29 25 21
182 173 163 160 162 153 151 146 142 146 134 127 122 116 113 111 110 104 104 97 100 101 91 73 62 61 63 65 69 71 68 62 58 54 51 47 43 40 36 31 27 24 19
177 173 162 159 152 153 153 151 142 147 135 133 125 118 111 113 117 118 117 111 108 103 94 87 84 58 58 59 62 66 65 61 57 52 47 44 40 35 31 28 24 21 17
180 182 169 158 153 168 161 150 146 151 140 136 119 115 109 118 128 134 133 124 120 103 98 93 86 81 73 52 50 53 57 56 53 50 45 39 34 31 27 24 19 16 13
175 168 165 165 159 170 147 151 167 146 143 167 139 134 156 153 161 164 151 137 131 121 104 88 86 82 87 83 51 47 46 48 48 46 40 34 29 26 24 20 15 11 8
171 164 172 165 165 173 165 164 174 165 158 190 170 152 159 187 142 177 174 170 161 144 130 125 118 113 92 69 49 36 40 40 42 39 34 28 25 21 19 16 11 8 5
184 166 172 178 169 164 173 177 177 177 157 174 180 154 342 122 184 167 184 185 183 177 167 171 148 130 130 116 93 39 31 35 36 33 26 21 19 17 12 10 7 4 1
190 172 171 175 176 177 179 180 182 177 178 178 187 156 188 162 147 142 166 178 193 188 175 176 171 155 142 115 80 57 26 31 31 24 18 15 12 10 7 4 2 358 357
178 184 174 173 175 181 181 189 185 183 175 183 203 172 173 170 188 170 131 160 180 180 178 177 186 179 155 134 107 54 24 25 17 13 10 7 5 3 0 357 354 353 351
187 191 181 181 183 186 178 177 181 189 173 185 196 180 182 198 152 176 126 157 166 153 172 189 191 170 177 169 106 26 74 13 360 1 360 360 357 354 351 350 349 346 343
193 180 186 185 187 187 185 177 184 181 186 186 184 167 154 146 156 136 150 148 145 149 184 161 178 183 165 144 102 260 247 48 335 341 350 349 344 343 343 342 339 337 337
184 178 184 180 178 180 178 175 176 177 182 184 166 158 149 136 106 94 127 164 143 154 185 168 160 181 173 166 127 306 288 14 308 326 332 331 330 337 332 332 331 331 333
171 169 168 177 169 173 167 173 174 158 162 170 154 154 143 145 137 136 129 134 116 148 142 125 188 156 166 180 158 236 263 283 272 300 308 314 323 326 322 322 328 329 328
175 167 170 171 173 170 172 177 176 163 164 160 164 157 146 143 139 136 125 115 100 92 123 95 126 143 172 200 187 215 227 272 290 279 297 304 315 319 319 319 325 323 324
171 170 172 178 179 184 182 176 177 173 172 160 161 154 148 145 143 147 139 140 140 141 128 137 152 164 199 184 216 245 243 223 252 277 295 307 311 317 318 320 317 316 316
167 161 165 176 181 181 174 161 170 169 171 162 158 155 150 147 143 143 143 142 140 128 110 105 137 138 195 188 225 236 237 245 247 260 295 301 308 311 310 313 309 308 312
165 171 179 179 175 170 165 148 142 143 157 148 147 148 155 155 148 150 150 158 141 144 115 143 164 179 191 174 181 236 250 220 276 266 282 299 298 305 310 309 306 305 305
177 176 168 167 164 169 165 151 141 158 150 135 124 129 142 145 152 158 156 157 148 157 144 182 190 191 200 191 209 185 252 279 285 262 273 267 308 299 297 302 305 303 305
164 163 176 175 175 177 171 174 161 151 151 153 146 148 144 143 162 172 171 167 178 156 175 182 196 212 222 212 206 228 246 274 298 208 312 286 297 289 296 291 303 305 307
165 179 182 180 186 179 182 181 163 148 160 165 156 157 143 151 167 166 181 193 207 206 200 194 206 210 206 202 208 231 242 246 254 279 331 278 281 279 284 302 299 303 306
175 175 179 179 176 181 179 181 162 153 152 157 169 174 157 154 167 151 153 208 217 223 227 216 222 228 230 227 219 216 238 262 267 261 238 271 252 285 292 293 300 301 306
166 170 166 166 171 173 188 184 168 163 157 169 170 171 158 156 174 180 188 214 225 226 227 232 242 251 250 247 233 219 241 248 256 253 214 267 283 294 297 294 260 314 313
157 145 150 160 154 159 182 184 176 156 163 165 169 180 180 175 182 197 194 206 227 222 190 218 254 268 266 262 260 249 250 251 257 281 124 235 272 330 297 299 308 306 308